EW7658 Weather Reports


Display with metric or nautical units.
time (UTC)temp
F
wind
direction
speed
MPH
gust
MPH
rain 1hr
in
rain 24hr
in
rain mn
in
humidity
%
barometer
mb
20260504221026 81 279 1.0 16.0 0.00 0.00 0.00 49 1002.7
20260504220524 82 0 0.0 12.0 0.00 0.00 0.00 50 1002.6
20260504220033 82 0 1.0 13.0 0.00 0.00 0.00 50 1002.7
20260504215527 82 0 0.0 13.0 0.00 0.00 0.00 51 1002.7
20260504215024 82 307 0.0 21.0 0.00 0.00 0.00 50 1002.6
20260504214544 82 0 3.0 21.0 0.00 0.00 0.00 50 1002.7
20260504214023 83 271 0.0 19.0 0.00 0.00 0.00 50 1002.7
20260504213523 82 309 5.0 17.0 0.00 0.00 0.00 48 1002.7
20260504213039 83 258 3.0 16.0 0.00 0.00 0.00 49 1002.9
20260504212524 83 0 0.0 16.0 0.00 0.00 0.00 50 1002.8
20260504212023 82 0 4.0 16.0 0.00 0.00 0.00 50 1002.8
20260504211537 82 314 1.0 17.0 0.00 0.00 0.00 52 1002.7
20260504211024 82 274 1.0 17.0 0.00 0.00 0.00 51 1002.8
20260504210523 82 0 0.0 17.0 0.00 0.00 0.00 51 1002.9
20260504210050 82 259 0.0 10.0 0.00 0.00 0.00 51 1002.7
20260504205524 82 0 1.0 19.0 0.00 0.00 0.00 51 1002.8
20260504205026 82 0 5.0 19.0 0.00 0.00 0.00 52 1003.0
20260504204547 81 0 1.0 19.0 0.00 0.00 0.00 51 1003.0
20260504204024 81 270 0.0 22.0 0.00 0.00 0.00 52 1003.0
20260504203525 81 257 5.0 22.0 0.00 0.00 0.00 53 1003.0
20260504203044 80 280 1.0 14.0 0.00 0.00 0.00 54 1003.2
20260504202525 80 0 1.0 15.0 0.00 0.00 0.00 55 1003.1
20260504202023 80 0 1.0 15.0 0.00 0.00 0.00 55 1003.3
20260504201544 81 300 1.0 15.0 0.00 0.00 0.00 54 1003.5
20260504201024 80 0 1.0 19.0 0.00 0.00 0.00 56 1003.6
20260504200525 80 0 0.0 19.0 0.00 0.00 0.00 56 1003.5
20260504200050 79 311 4.0 17.0 0.00 0.00 0.00 54 1003.6
20260504195524 80 279 5.0 17.0 0.00 0.00 0.00 53 1003.9
20260504195024 80 299 2.0 14.0 0.00 0.00 0.00 55 1004.2
20260504194544 80 0 2.0 14.0 0.00 0.00 0.00 56 1004.3
20260504194024 80 0 0.0 9.0 0.00 0.00 0.00 59 1004.3
20260504193524 79 255 0.0 4.0 0.00 0.00 0.00 58 1004.4
20260504193044 78 0 0.0 5.0 0.00 0.00 0.00 60 1004.3
20260504192523 77 0 0.0 7.0 0.00 0.00 0.00 60 1004.3
20260504192025 76 0 0.0 7.0 0.00 0.00 0.00 62 1004.4
20260504191539 76 0 0.0 2.0 0.00 0.00 0.00 64 1004.5
20260504191027 75 0 0.0 10.0 0.00 0.00 0.00 64 1004.6
20260504190526 74 0 0.0 10.0 0.00 0.00 0.00 65 1004.7
20260504190040 74 0 0.0 3.0 0.00 0.00 0.00 64 1004.7
20260504185523 73 0 0.0 3.0 0.00 0.00 0.00 66 1004.9
20260504185023 71 0 0.0 6.0 0.00 0.00 0.00 68 1004.8
20260504184540 70 0 0.0 16.0 0.00 0.00 0.00 68 1004.6
20260504184023 69 302 1.0 16.0 0.00 0.00 0.00 69 1004.3
20260504183523 68 279 1.0 16.0 0.00 0.00 0.00 70 1003.8
20260504183038 68 233 2.0 16.0 0.00 0.00 0.00 71 1003.0
20260504182524 68 194 1.0 10.0 0.00 0.00 0.00 70 1003.7
20260504182023 68 0 0.0 8.0 0.00 0.00 0.00 69 1004.2
20260504181533 69 0 0.0 3.0 0.00 0.00 0.00 68 1004.5
20260504181026 69 0 0.0 5.0 0.00 0.00 0.00 67 1004.5
20260504180524 69 0 0.0 5.0 0.00 0.00 0.00 67 1004.8
20260504180041 69 0 0.0 19.0 0.00 0.00 0.00 65 1005.5
20260504175524 69 0 0.0 19.0 0.00 0.00 0.00 64 1005.6
20260504175025 70 0 0.0 10.0 0.00 0.00 0.00 63 1005.2
20260504174540 70 0 0.0 10.0 0.00 0.00 0.00 62 1005.2
20260504174024 70 0 0.0 10.0 0.00 0.00 0.00 62 1005.4
20260504173526 71 0 0.0 8.0 0.00 0.00 0.00 61 1005.5
20260504173039 71 0 0.0 8.0 0.00 0.00 0.00 62 1005.5
20260504172524 71 0 0.0 8.0 0.00 0.00 0.00 61 1005.6
20260504172024 72 160 0.0 8.0 0.00 0.00 0.00 60 1005.6
20260504171538 73 215 0.0 6.0 0.00 0.00 0.00 60 1005.9
20260504171024 73 0 0.0 5.0 0.00 0.00 0.00 59 1006.1
20260504170524 73 292 0.0 8.0 0.00 0.00 0.00 62 1006.1
20260504151024 63 0 0.0 3.0 0.00 0.00 0.00 73 1006.6
20260504150524 63 0 0.0 1.0 0.00 0.00 0.00 74 1006.7
20260504141028 65 0 0.0 1.0 0.00 0.00 0.00 69 1007.7
20260504140524 65 0 0.0 1.0 0.00 0.00 0.00 68 1007.6
20260504130524 65 0 0.0 4.0 0.00 0.00 0.00 70 1008.0
20260504110523 56 0 0.0 1.0 0.00 0.00 0.00 82 1008.2
20260504100527 59 0 0.0 0.0 0.00 0.00 0.00 75 1008.6
20260504081539 58 0 0.0 0.0 0.00 0.00 0.00 80 1008.7
20260504081024 58 0 0.0 0.0 0.00 0.00 0.00 79 1008.7
20260504080526 58 0 0.0 0.0 0.00 0.00 0.00 80 1008.7
20260504050524 63 0 0.0 0.0 0.00 0.00 0.00 71 1008.8
20260504045523 63 0 0.0 0.0 0.00 0.00 0.00 71 1008.8
20260504045032 63 0 0.0 0.0 0.00 0.00 0.00 71 1008.8
20260504044536 63 0 0.0 0.0 0.00 0.00 0.00 69 1008.9
20260504044025 64 0 0.0 0.0 0.00 0.00 0.00 69 1008.9
20260504043523 65 0 0.0 0.0 0.00 0.00 0.00 67 1008.9
20260504043053 65 0 0.0 0.0 0.00 0.00 0.00 66 1008.8
20260504042521 65 0 0.0 0.0 0.00 0.00 0.00 65 1009.1
20260504042024 66 0 0.0 0.0 0.00 0.00 0.00 65 1009.0
20260504041538 66 0 0.0 0.0 0.00 0.00 0.00 64 1009.1
20260504041024 67 0 0.0 0.0 0.00 0.00 0.00 64 1009.3
20260504040524 67 0 0.0 0.0 0.00 0.00 0.00 62 1009.4
20260504040041 68 0 0.0 0.0 0.00 0.00 0.00 62 1009.6
20260504035524 67 0 0.0 0.0 0.00 0.00 0.00 61 1009.5
20260504035024 67 0 0.0 0.0 0.00 0.00 0.00 64 1009.7
20260504034612 68 0 0.0 0.0 0.00 0.00 0.00 63 1009.9
20260504034026 68 0 0.0 0.0 0.00 0.00 0.00 61 1009.9
20260504033523 68 0 0.0 0.0 0.00 0.00 0.00 61 1009.6
20260504033038 68 0 0.0 5.0 0.00 0.00 0.00 61 1009.5
20260504032524 68 0 0.0 5.0 0.00 0.00 0.00 61 1009.2
20260504032025 68 0 0.0 0.0 0.00 0.00 0.00 61 1009.4
20260504031548 68 0 0.0 0.0 0.00 0.00 0.00 62 1009.5
20260504031025 68 0 0.0 0.0 0.00 0.00 0.00 62 1009.5
20260504030524 68 0 0.0 0.0 0.00 0.00 0.00 63 1009.3
20260504030055 68 0 0.0 0.0 0.00 0.00 0.00 63 1009.6
20260504025524 68 0 0.0 0.0 0.00 0.00 0.00 63 1009.6
20260504025024 68 0 0.0 0.0 0.00 0.00 0.00 64 1009.4
20260504024539 68 0 0.0 0.0 0.00 0.00 0.00 64 1009.4
20260504024024 67 0 0.0 0.0 0.00 0.00 0.00 65 1009.3
20260504023524 67 0 0.0 0.0 0.00 0.00 0.00 66 1009.4
20260504023036 68 0 0.0 0.0 0.00 0.00 0.00 65 1009.3
20260504022524 68 0 0.0 0.0 0.00 0.00 0.00 65 1009.3
20260504022024 68 0 0.0 0.0 0.00 0.00 0.00 64 1009.3
20260504021545 68 0 0.0 0.0 0.00 0.00 0.00 64 1009.3
20260504021024 68 0 0.0 0.0 0.00 0.00 0.00 64 1009.3
20260504020523 68 0 0.0 0.0 0.00 0.00 0.00 63 1009.4
20260504020039 68 0 0.0 0.0 0.00 0.00 0.00 65 1009.2
20260504015524 68 0 0.0 0.0 0.00 0.00 0.00 63 1009.2
20260504015026 69 0 0.0 0.0 0.00 0.00 0.00 64 1009.2
20260504014538 69 0 0.0 0.0 0.00 0.00 0.00 63 1009.2
20260504014023 69 0 0.0 0.0 0.00 0.00 0.00 61 1009.2
20260504013523 70 0 0.0 0.0 0.00 0.00 0.00 60 1009.2
20260504013038 70 0 0.0 0.0 0.00 0.00 0.00 59 1009.2
20260504012523 71 0 0.0 0.0 0.00 0.00 0.00 58 1009.2
20260504012024 71 0 0.0 0.0 0.00 0.00 0.00 58 1009.2
20260504011536 72 0 0.0 0.0 0.00 0.00 0.00 57 1009.3
20260504011028 72 0 0.0 0.0 0.00 0.00 0.00 56 1009.3
20260504010523 73 0 0.0 0.0 0.00 0.00 0.00 54 1009.2
20260504010052 73 0 0.0 0.0 0.00 0.00 0.00 54 1009.2
20260504005524 74 0 0.0 0.0 0.00 0.00 0.00 53 1009.1
20260504005026 74 0 0.0 0.0 0.00 0.00 0.00 52 1009.0
20260504004544 74 0 0.0 0.0 0.00 0.00 0.00 51 1009.0
20260504004025 75 0 0.0 0.0 0.00 0.00 0.00 50 1009.0
20260504003523 75 0 0.0 0.0 0.00 0.00 0.00 50 1009.1
20260504003038 76 0 0.0 0.0 0.00 0.00 0.00 49 1009.0
20260504002523 76 0 0.0 0.0 0.00 0.00 0.00 48 1008.9
20260504002023 76 0 0.0 0.0 0.00 0.00 0.00 48 1009.0
20260504001540 76 0 0.0 0.0 0.00 0.00 0.00 48 1008.9
20260504001025 76 0 0.0 0.0 0.00 0.00 0.00 47 1008.9
20260504000525 77 0 0.0 0.0 0.00 0.00 0.00 47 1008.9
20260504000034 77 0 0.0 0.0 0.00 0.00 0.00 47 1008.9
20260503235524 77 0 0.0 0.0 0.00 0.00 0.00 46 1009.0
20260503235024 77 0 0.0 0.0 0.00 0.00 0.00 46 1009.1
20260503234542 77 0 0.0 0.0 0.00 0.00 0.00 45 1009.1
20260503234024 77 0 0.0 0.0 0.00 0.00 0.00 45 1009.0
20260503233524 77 0 0.0 0.0 0.00 0.00 0.00 45 1009.0
20260503233039 77 0 0.0 0.0 0.00 0.00 0.00 44 1009.0
20260503232523 78 0 0.0 0.0 0.00 0.00 0.00 45 1009.0
20260503232023 78 0 0.0 13.0 0.00 0.00 0.00 44 1009.1
20260503231538 78 0 0.0 13.0 0.00 0.00 0.00 43 1009.0
20260503231024 78 0 1.0 13.0 0.00 0.00 0.00 42 1009.4
20260503230524 78 0 0.0 9.0 0.00 0.00 0.00 42 1009.2
20260503230050 78 0 1.0 11.0 0.00 0.00 0.00 42 1009.2
20260503225524 79 0 1.0 11.0 0.00 0.00 0.00 41 1009.3
20260503225023 80 0 0.0 8.0 0.00 0.00 0.00 41 1009.3
20260503224537 80 0 0.0 15.0 0.00 0.00 0.00 42 1009.3
20260503224024 79 0 2.0 15.0 0.00 0.00 0.00 41 1009.4
20260503223526 79 269 0.0 13.0 0.00 0.00 0.00 42 1009.4
20260503223036 80 288 0.0 13.0 0.00 0.00 0.00 41 1009.4
20260503222523 79 0 0.0 5.0 0.00 0.00 0.00 41 1009.4
20260503222023 79 296 0.0 10.0 0.00 0.00 0.00 40 1009.5
20260503221547 79 306 0.0 14.0 0.00 0.00 0.00 41 1009.7